Weather History for Rhinelander, WI

Change the Weather History Date:

Friday, April 4, 2014

  Actual Average Record
Temperature  
Mean Temperature 22 °F 36 °F  
Max Temperature 29 °F 47 °F 78 °F (1921)
Min Temperature 15 °F 25 °F -1 °F (2002)
Degree Days  
Heating Degree Days 43 29  
Month to date heating degree days 146 118  
Since 1 July heating degree days 9214 7913  
Cooling Degree Days 0 0  
Month to date cooling degree days 0 0  
Year to date cooling degree days 0 0  
Moisture  
Dew Point 25 °F    
Average Humidity 88    
Maximum Humidity 100    
Minimum Humidity 75    
Precipitation  
Precipitation 0.72 in 0.07 in 1.34 in (1974)
Month to date precipitation 1.19 0.28  
Year to date precipitation 4.56 3.89  
Snow  
Snow 7.30 in - 5.50 in (1945)
Month to date snowfall 9.6  
Since 1 July snowfall 91.7  
Snow Depth 25.00 in    
Sea Level Pressure  
Sea Level Pressure 29.65 in    
Wind  
Wind Speed 9 mph (NNE)    
Max Wind Speed 18 mph    
Max Gust Speed 31 mph    
Visibility 3 miles    
Events Fog , Rain , Snow    
T = Trace of Precipitation, MM = Missing Value Source: NWS Daily Summary

Daily Weather History Graph

Daily Weather History Graph

Search for Another Location

Airport:

Trip Planner

Search our weather history database for the weather conditions in past years. The results will help you decide how hot, cold, wet, or windy it might be!

Date:

Astronomy

Apr. 04, 2014 Rise Set
Actual Time 6:32 AM CDT 7:30 PM CDT
Civil Twilight 6:02 AM CDT 8:00 PM CDT
Nautical Twilight 5:26 AM CDT 8:36 PM CDT
Astronomical Twilight 4:48 AM CDT 9:14 PM CDT
Moon 9:38 AM CDT (4/4) No Moon Set
Length of Visible Light 13h 58m
Length of Day
12h 57m
Waxing Crescent, 25% of the Moon is Illuminated
Apr 4
Waxing Crescent
Apr 7
First Quarter
Apr 15
Full
Apr 22
Last Quarter
Apr 29
New

Hourly Weather History & Observations

Time (CDT) Temp. Windchill Dew Point Humidity Pressure Visibility Wind Dir Wind Speed Gust Speed Precip Events Conditions
12:06 AM 28.0 °F 17.5 °F 26.1 °F 92% 29.76 in 2.0 mi ENE 12.7 mph - 0.01 in   Overcast
12:18 AM 28.0 °F 18.1 °F 26.1 °F 92% 29.76 in 1.8 mi ENE 11.5 mph - 0.02 in Snow Light Snow
12:26 AM 28.0 °F 17.5 °F 26.1 °F 92% 29.74 in 2.0 mi ENE 12.7 mph - 0.02 in Snow Light Snow
12:30 AM 28.0 °F 17.0 °F 26.1 °F 92% 29.74 in 1.8 mi ENE 13.8 mph - 0.02 in Snow Light Snow
12:42 AM 28.0 °F 18.1 °F 26.1 °F 92% 29.72 in 2.5 mi ENE 11.5 mph - 0.03 in   Overcast
12:53 AM 28.0 °F 19.3 °F 26.1 °F 92% 29.77 in 3.0 mi ENE 9.2 mph - 0.04 in Rain Light Freezing Rain
1:06 AM 28.0 °F 17.5 °F 26.1 °F 92% 29.71 in 5.0 mi East 12.7 mph - 0.00 in Rain Light Freezing Rain
1:13 AM 27.0 °F 15.6 °F 25.0 °F 92% 29.69 in 4.0 mi ENE 13.8 mph 21.9 mph 0.00 in   Overcast
1:28 AM 27.0 °F 16.1 °F 25.0 °F 92% 29.68 in 2.5 mi ENE 12.7 mph - 0.00 in Rain Light Freezing Rain
1:43 AM 27.0 °F 16.7 °F 25.0 °F 92% 29.66 in 3.0 mi ENE 11.5 mph - 0.01 in Rain Light Freezing Rain
1:53 AM 27.0 °F 17.3 °F 25.0 °F 92% 29.72 in 4.0 mi ENE 10.4 mph - 0.01 in Rain Light Freezing Rain
2:00 AM 27.0 °F 18.7 °F 25.0 °F 92% 29.67 in 5.0 mi ENE 8.1 mph - 0.00 in   Overcast
2:23 AM 27.0 °F 20.5 °F 25.0 °F 92% 29.67 in 5.0 mi ENE 5.8 mph - 0.00 in Rain Light Freezing Rain
2:45 AM 28.0 °F 24.2 °F 25.0 °F 88% 29.68 in 3.0 mi NE 3.5 mph - 0.03 in Rain Light Freezing Rain
2:51 AM 26.6 °F 21.2 °F 24.8 °F 93% 29.67 in 3.0 mi NNE 4.6 mph - 0.03 in   Overcast
2:53 AM 27.0 °F 23.0 °F 26.1 °F 96% 29.73 in 3.0 mi NNE 3.5 mph - 0.04 in   Overcast
3:01 AM 27.0 °F 21.6 °F 26.1 °F 96% 29.67 in 2.5 mi NNE 4.6 mph - 0.00 in   Overcast
3:04 AM 27.0 °F 20.5 °F 26.1 °F 96% 29.67 in 1.8 mi NNE 5.8 mph - 0.01 in   Overcast
3:12 AM 27.0 °F 20.5 °F 26.1 °F 96% 29.65 in 1.0 mi Variable 5.8 mph - 0.02 in Snow Light Snow
3:17 AM 27.0 °F 20.5 °F 26.1 °F 96% 29.65 in 0.8 mi NNE 5.8 mph - 0.02 in Snow Light Snow
3:34 AM 27.0 °F 19.5 °F 26.1 °F 96% 29.63 in 1.0 mi NNE 6.9 mph - 0.02 in Snow Light Snow
3:53 AM 27.0 °F 18.7 °F 25.0 °F 92% 29.67 in 1.5 mi NE 8.1 mph - 0.02 in Snow Light Snow
4:03 AM 27.0 °F 19.5 °F 25.0 °F 92% 29.61 in 1.5 mi NE 6.9 mph - 0.00 in Snow Light Snow
4:11 AM 27.0 °F 19.5 °F 25.0 °F 92% 29.61 in 1.8 mi NNE 6.9 mph - 0.00 in Snow Light Snow
4:20 AM 27.0 °F 19.5 °F 25.0 °F 92% 29.61 in 2.5 mi NE 6.9 mph - 0.00 in Snow Light Snow
4:28 AM 27.0 °F 20.5 °F 25.0 °F 92% 29.61 in 4.0 mi NNE 5.8 mph - 0.00 in   Overcast
4:37 AM 27.0 °F 19.5 °F 26.1 °F 96% 29.61 in 3.0 mi NNE 6.9 mph - 0.00 in Rain Light Freezing Rain
4:44 AM 27.0 °F 19.5 °F 26.1 °F 96% 29.61 in 2.5 mi NNE 6.9 mph - 0.00 in Rain Light Freezing Rain
4:53 AM 27.0 °F 19.5 °F 26.1 °F 96% 29.65 in 2.5 mi NNE 6.9 mph - 0.01 in Rain Light Freezing Rain
5:15 AM 27.0 °F 18.7 °F 26.1 °F 96% 29.57 in 3.0 mi NE 8.1 mph - 0.00 in Rain Light Freezing Rain
5:53 AM 27.0 °F 18.7 °F 26.1 °F 96% 29.63 in 3.0 mi NNE 8.1 mph - 0.01 in Snow Light Snow
6:15 AM 27.0 °F 20.5 °F 26.1 °F 96% 29.59 in 1.8 mi NNE 5.8 mph - 0.01 in Snow Light Snow
6:27 AM 27.0 °F 19.5 °F 26.1 °F 96% 29.57 in 0.5 mi NNE 6.9 mph - 0.02 in Fog , Snow Light Snow
6:53 AM 27.0 °F 20.5 °F 26.1 °F 96% 29.65 in 0.5 mi North 5.8 mph - 0.06 in Fog , Snow Light Snow
7:04 AM 27.0 °F 17.3 °F 25.0 °F 92% 29.56 in 0.5 mi North 10.4 mph 16.1 mph 0.01 in Fog , Snow Light Snow
7:21 AM 27.0 °F 18.0 °F 25.0 °F 92% 29.58 in 1.0 mi NE 9.2 mph - 0.02 in Snow Light Snow
7:28 AM 27.0 °F 17.3 °F 25.0 °F 92% 29.56 in 1.2 mi NE 10.4 mph - 0.02 in Snow Light Snow
7:36 AM 27.0 °F 18.0 °F 25.0 °F 92% 29.57 in 2.0 mi NE 9.2 mph - 0.02 in Snow Light Snow
7:53 AM 27.0 °F 18.7 °F 25.0 °F 92% 29.61 in 3.0 mi NNE 8.1 mph - 0.02 in Snow Light Snow
8:02 AM 27.0 °F 20.5 °F 25.0 °F 92% 29.55 in 2.5 mi NNE 5.8 mph - 0.00 in Snow Light Snow
8:09 AM 27.0 °F 19.5 °F 26.1 °F 96% 29.55 in 2.5 mi NNE 6.9 mph - 0.00 in Snow Light Snow
8:28 AM 27.0 °F 18.0 °F 26.1 °F 96% 29.54 in 1.2 mi NE 9.2 mph - 0.00 in Snow Light Snow
8:41 AM 27.0 °F 17.3 °F 25.0 °F 92% 29.52 in 1.5 mi NE 10.4 mph 18.4 mph 0.00 in Snow Light Snow
8:53 AM 27.0 °F 17.3 °F 26.1 °F 96% 29.55 in 0.5 mi NE 10.4 mph - 0.00 in Fog , Snow Snow
8:55 AM 27.0 °F 18.7 °F 26.1 °F 96% 29.49 in 0.2 mi NNE 8.1 mph 18.4 mph 0.00 in Fog , Snow Snow
9:15 AM 28.0 °F 20.8 °F 26.1 °F 92% 29.53 in 0.2 mi NNE 6.9 mph - 0.04 in Fog , Snow Snow
9:26 AM 28.0 °F 22.8 °F 26.1 °F 92% 29.54 in 0.8 mi North 4.6 mph - 0.04 in Snow Light Snow
9:30 AM 28.0 °F 22.8 °F 26.1 °F 92% 29.55 in 1.0 mi NNW 4.6 mph - 0.04 in Snow Light Snow
9:53 AM 28.0 °F 20.0 °F 26.1 °F 92% 29.60 in 2.0 mi NNE 8.1 mph - 0.04 in Snow Light Snow
10:05 AM 28.0 °F 19.3 °F 26.1 °F 92% 29.52 in 2.5 mi NNE 9.2 mph 17.3 mph 0.00 in Snow Light Snow
10:10 AM 28.0 °F 18.6 °F 26.1 °F 92% 29.53 in 3.0 mi NNE 10.4 mph 18.4 mph 0.00 in Snow Light Snow
10:17 AM 28.0 °F 20.0 °F 26.1 °F 92% 29.52 in 4.0 mi North 8.1 mph 16.1 mph 0.01 in Snow Light Snow
10:44 AM 28.0 °F 20.0 °F 26.1 °F 92% 29.52 in 4.0 mi North 8.1 mph 17.3 mph 0.01 in Snow Light Snow
10:53 AM 28.0 °F 20.8 °F 25.0 °F 88% 29.59 in 3.0 mi North 6.9 mph - 0.01 in Snow Light Snow
11:02 AM 28.0 °F 18.6 °F 25.0 °F 88% 29.53 in 2.0 mi NNE 10.4 mph - 0.00 in Snow Light Snow
11:16 AM 28.9 °F 19.2 °F 26.1 °F 89% 29.53 in 1.8 mi North 11.5 mph 17.3 mph 0.00 in Snow Light Snow
11:34 AM 28.9 °F 19.2 °F 26.1 °F 89% 29.53 in 2.0 mi NNE 11.5 mph 18.4 mph 0.00 in Snow Light Snow
11:44 AM 28.9 °F 19.8 °F 26.1 °F 89% 29.54 in 2.5 mi North 10.4 mph 20.7 mph 0.00 in Snow Light Snow
11:53 AM 28.9 °F 21.1 °F 26.1 °F 89% 29.60 in 4.0 mi NNE 8.1 mph 20.7 mph 0.00 in Snow Light Snow
12:03 PM 28.9 °F 18.6 °F 25.0 °F 85% 29.54 in 5.0 mi North 12.7 mph 19.6 mph 0.00 in Snow Light Snow
12:53 PM 28.9 °F 21.9 °F 26.1 °F 89% 29.62 in 4.0 mi NNW 6.9 mph - 0.00 in Snow Light Snow
1:17 PM 28.9 °F 21.1 °F 25.0 °F 85% 29.56 in 4.0 mi NNW 8.1 mph 19.6 mph 0.00 in Snow Light Snow
1:31 PM 28.0 °F 18.6 °F 25.0 °F 88% 29.57 in 2.5 mi NNW 10.4 mph 21.9 mph 0.00 in Snow Light Snow
1:40 PM 28.0 °F 18.6 °F 25.0 °F 88% 29.57 in 0.8 mi NNW 10.4 mph 21.9 mph 0.01 in Snow Light Snow
1:45 PM 28.0 °F 17.0 °F 25.0 °F 88% 29.58 in 0.5 mi NNW 13.8 mph 21.9 mph 0.01 in Fog , Snow Snow
1:53 PM 28.0 °F 18.6 °F 25.0 °F 88% 29.64 in 0.5 mi NNW 10.4 mph 21.9 mph 0.02 in Fog , Snow Snow
2:09 PM 27.0 °F 17.3 °F 25.0 °F 92% 29.59 in 0.2 mi NW 10.4 mph 18.4 mph 0.01 in Fog , Snow Snow
2:35 PM 26.1 °F 14.0 °F 24.1 °F 92% 29.61 in 0.2 mi NNW 15.0 mph 28.8 mph 0.05 in Fog , Snow Heavy Snow
2:53 PM 25.0 °F 13.1 °F 23.0 °F 92% 29.68 in 0.2 mi NNW 13.8 mph 24.2 mph 0.07 in Fog , Snow Heavy Snow
3:53 PM 26.1 °F 14.5 °F 21.9 °F 84% 29.70 in 0.8 mi NNW 13.8 mph 23.0 mph 0.08 in Snow Light Snow
4:05 PM 26.1 °F 16.2 °F 24.1 °F 92% 29.65 in 1.0 mi NW 10.4 mph 19.6 mph 0.00 in Snow Light Snow
4:20 PM 25.0 °F 17.1 °F 21.9 °F 88% 29.66 in 0.8 mi NNW 6.9 mph 19.6 mph 0.00 in Snow Light Snow
4:36 PM 25.0 °F 14.8 °F 21.9 °F 88% 29.68 in 0.5 mi NNW 10.4 mph 25.3 mph 0.00 in Fog , Snow Snow
4:53 PM 25.0 °F 15.5 °F 21.9 °F 88% 29.75 in 0.8 mi NNW 9.2 mph 19.6 mph 0.00 in Snow Light Snow
5:12 PM 25.0 °F 13.6 °F 21.0 °F 85% 29.70 in 0.8 mi NNW 12.7 mph 20.7 mph 0.01 in Snow Light Snow
5:36 PM 25.0 °F 16.3 °F 21.0 °F 85% 29.71 in 1.2 mi NNW 8.1 mph 20.7 mph 0.01 in Snow Light Snow
5:44 PM 25.0 °F 14.2 °F 21.0 °F 85% 29.72 in 3.0 mi NNW 11.5 mph 20.7 mph 0.01 in Snow Light Snow
5:53 PM 25.0 °F 13.6 °F 21.0 °F 85% 29.79 in 9.0 mi NNW 12.7 mph 20.7 mph 0.01 in   Overcast
6:01 PM 25.0 °F 13.6 °F 21.0 °F 85% 29.73 in 9.0 mi NNW 12.7 mph 20.7 mph N/A   Overcast
6:53 PM 26.1 °F 13.6 °F 21.9 °F 84% 29.84 in 10.0 mi NNW 16.1 mph 23.0 mph N/A   Overcast
7:53 PM 27.0 °F 15.6 °F 21.9 °F 81% 29.87 in 7.0 mi NNW 13.8 mph 31.1 mph 0.00 in   Overcast
8:53 PM 27.0 °F 17.3 °F 23.0 °F 85% 29.90 in 10.0 mi NNW 10.4 mph 21.9 mph 0.00 in   Overcast
9:53 PM 27.0 °F 14.7 °F 21.9 °F 81% 29.93 in 7.0 mi NNW 16.1 mph 29.9 mph N/A   Overcast
10:44 PM 26.1 °F 15.6 °F 21.0 °F 81% 29.88 in 10.0 mi NNW 11.5 mph 17.3 mph N/A   Scattered Clouds
10:53 PM 26.1 °F 18.4 °F 19.9 °F 78% 29.96 in 10.0 mi Variable 6.9 mph 18.4 mph N/A   Partly Cloudy
11:53 PM 23.0 °F 17.0 °F 19.0 °F 85% 29.98 in 10.0 mi WNW 4.6 mph - N/A   Clear